CAPE
124 18 0 30 114 107 150 225 61 106 602 703 1109 1264 1008 1095 983 918 817 571 1037 826
174 84 30 39 103 141 208 195 75 41 458 793 819 1177 1265 1057 1052 970 1015 1119 1072 963
219 105 62 36 132 116 283 375 219 389 251 423 818 1042 1339 1261 1143 1132 1105 994 1122 1071
286 277 195 156 175 104 357 235 134 158 342 427 891 1271 1415 1364 1308 1317 1177 1202 971 1029
338 395 421 343 320 209 245 329 460 755 763 570 728 1015 1413 1381 1187 1039 1148 1090 1038 773
551 455 362 460 588 612 551 404 337 666 970 754 800 1014 1110 1104 1058 1127 1176 1193 1144 1036
799 604 463 483 550 723 943 1068 1227 897 775 983 959 713 692 854 1079 1249 1293 1305 1243 1063
1054 842 710 683 747 699 597 539 882 1076 1163 1141 854 717 769 778 753 681 758 880 1162 1401
1114 1077 1016 906 856 882 893 821 653 556 548 676 755 831 767 1075 1126 1278 1235 1193 1392 1345
1241 1220 1228 1175 1079 1008 996 961 924 897 807 657 800 702 671 946 984 916 873 972 640 881
1305 1315 1297 1291 1267 1219 1185 1188 1190 1173 1182 1299 1273 1151 835 452 152 219 353 333 243 289
1537 1499 1481 1470 1382 1262 1213 1259 1478 1487 1555 1623 1378 1211 800 180 0 0 11 141 118 237
1902 1810 1749 1689 1627 1603 1596 1595 1775 2022 1991 2030 1893 1570 1040 633 120 4 1 42 72 78
2028 2041 1980 1959 1964 1948 2171 2355 2416 2451 2194 1920 1824 1691 1353 733 181 4 7 37 55 46
CIN
-135 -186 0 -162 -84 -80 -66 -41 -68 -121 -17 -77 -55 -25 -33 -36 -36 -33 -24 -42 -17 -12
-149 -180 -228 -164 -123 -96 -66 -56 -97 -129 -87 -54 -66 -55 -21 -43 -38 -40 -33 -23 -17 -22
-190 -216 -213 -213 -142 -134 -83 -54 -170 -95 -85 -103 -131 -95 -39 -31 -38 -35 -31 -40 -36 -32
-273 -246 -213 -188 -152 -158 -87 -87 -106 -50 -34 -37 -127 -73 -47 -38 -45 -32 -34 -20 -38 -46
-216 -243 -225 -215 -191 -147 -124 -100 -88 -45 -43 -31 -34 -116 -49 -38 -38 -51 -41 -51 -16 -20
-241 -239 -272 -229 -192 -141 -100 -94 -98 -75 -25 -39 -52 -52 -39 -44 -33 -25 -27 -25 -20 -15
-260 -262 -309 -256 -202 -151 -106 -83 -54 -60 -50 -39 -17 -15 -53 -62 -38 -21 -21 -11 -12 -14
-259 -276 -282 -269 -244 -198 -168 -169 -83 -59 -46 -40 -47 -87 -64 -50 -48 -55 -49 -34 -22 -11
-269 -299 -286 -277 -265 -249 -217 -191 -181 -175 -190 -136 -70 -66 -32 -61 -51 -28 -24 -41 -29 -25
-291 -282 -299 -281 -278 -257 -247 -225 -215 -189 -165 -135 -72 -125 -112 -52 -23 -24 -23 -30 -54 -29
-265 -267 -242 -258 -267 -251 -223 -219 -193 -176 -153 -102 -72 -81 -46 -44 -34 -33 -78 -57 -46 -42
-242 -225 -202 -176 -134 -217 -198 -230 -210 -168 -124 -98 -55 -47 -39 -30 0 0 -79 -36 -3 -34
-238 -195 -213 -158 -126 -126 -104 -128 -154 -94 -68 -36 -9 -20 -30 -33 -31 -79 -15 -21 -12 -56
-213 -183 -152 -196 -142 -149 -156 -97 -54 -35 -20 -9 -4 -1 -3 -20 -43 -17 -95 -50 -43 -50
Wind_Speed
10 nan nan nan 16 16 17 17 nan 16 17 16 15 15 14 16 14 14 13 12 13 14
8 nan nan nan 16 15 15 15 nan nan 15 15 17 16 17 15 14 16 15 13 13 13
9 10 nan nan 12 13 12 11 14 15 15 15 17 18 18 15 13 14 14 14 15 15
9 9 11 10 9 9 10 11 12 11 12 14 13 13 17 15 13 15 14 16 15 15
10 8 9 10 10 11 10 11 12 12 13 12 14 14 15 15 12 14 14 15 17 17
12 10 7 7 8 10 9 10 12 13 14 14 14 14 14 16 15 15 16 17 16 15
13 10 8 7 9 11 11 12 12 13 14 14 14 15 15 17 17 17 18 18 18 17
16 13 12 12 13 14 16 13 13 14 15 14 14 16 17 18 17 17 16 17 17 17
17 15 12 13 13 15 15 15 17 16 15 16 17 19 19 20 21 21 19 18 22 23
20 17 13 14 15 16 17 19 19 19 20 25 27 40 37 34 29 27 26 25 25 28
21 16 14 14 14 15 18 16 16 18 26 32 26 35 33 37 33 36 32 32 32 30
19 17 17 16 17 19 20 20 20 26 31 32 28 34 45 46 nan nan nan 47 35 31
19 18 18 21 23 25 24 22 26 27 28 30 33 29 31 38 41 nan nan nan nan nan
26 23 25 29 30 29 29 30 31 31 30 31 32 34 43 44 35 nan nan nan nan nan
Wind_Direction
297 nan nan nan 256 257 260 255 nan 245 245 241 246 256 268 261 256 263 264 270 283 285
321 nan nan nan 264 264 263 252 nan nan 254 252 252 261 279 267 260 265 272 282 283 283
332 324 nan nan 271 269 266 260 254 256 261 256 262 262 273 270 269 277 278 278 284 284
316 331 311 303 292 282 262 261 260 257 257 268 260 259 265 274 277 281 280 279 283 289
288 302 315 318 300 287 286 270 268 263 265 266 267 267 272 275 267 276 276 281 285 285
290 293 321 329 302 283 285 282 280 278 275 272 274 274 272 278 278 277 278 274 274 276
300 307 306 283 275 285 290 286 280 276 278 277 280 282 281 281 281 278 275 278 281 278
289 284 280 273 277 280 283 285 275 269 266 266 270 268 269 269 271 275 272 273 278 280
276 275 288 292 285 278 281 284 286 285 285 275 259 256 263 262 260 261 266 270 270 264
279 281 285 293 292 295 294 290 291 290 287 272 265 271 272 264 264 255 256 256 263 264
284 283 276 280 290 291 289 296 297 294 285 287 295 297 299 291 282 278 261 254 250 253
280 280 280 291 293 291 285 283 287 279 285 296 300 310 301 295 nan nan nan 246 243 259
262 270 280 283 284 279 282 285 278 283 292 301 299 312 301 298 309 nan nan nan nan nan
260 267 271 270 271 278 280 279 273 277 280 289 294 295 285 290 291 nan nan nan nan nan